Sparta, WI

1:22 PM CST on February 23, 2018 (GMT -0600)
Sparta-Fort McCoy

Weather History for KCMY - August, 2012

Change the Weather History Date:

Saturday, August 4, 2012

  Actual Average Record
Temperature  
Mean Temperature 66 °F -  
Max Temperature 75 °F 82 °F 100 °F (1988)
Min Temperature 57 °F 55 °F 41 °F (1971)
Cooling Degree Days 1    
Growing Degree Days 16 (Base 50)    
Moisture  
Dew Point 63 °F    
Average Humidity 85    
Maximum Humidity 100    
Minimum Humidity 64    
Precipitation  
Precipitation 0.72 in - - ()
Sea Level Pressure  
Sea Level Pressure 29.90 in    
Wind  
Wind Speed 6 mph (West)    
Max Wind Speed 29 mph    
Max Gust Speed 37 mph    
Visibility 9 miles    
Events Rain , Thunderstorm    
Averages and records for this station are not official NWS values.
T = Trace of Precipitation, MM = Missing Value Source: NWS Daily Summary

Daily Weather History Graph

Daily Weather History Graph

Search for Another Location

Airport or City:

Trip Planner

Search our weather history database for the weather conditions in past years. The results will help you decide how hot, cold, wet, or windy it might be!

Date:

Astronomy

Aug. 04, 2012 Rise Set
Actual Time 5:55 AM CDT 8:22 PM CDT
Civil Twilight 5:22 AM CDT 8:54 PM CDT
Nautical Twilight 4:42 AM CDT 9:34 PM CDT
Astronomical Twilight 3:56 AM CDT 10:20 PM CDT
Moon 9:21 PM CDT (8/4) 8:50 AM CDT (8/4)
Length of Visible Light 15h 31m
Length of Day
14h 27m
Waning Gibbous, 92% of the Moon is Illuminated
Aug 4
Waning Gibbous
Aug 9
Last Quarter
Aug 17
New
Aug 24
First Quarter
Aug 31
Full

Hourly Weather History & Observations

Time (CDT) Temp. Dew Point Humidity Pressure Visibility Wind Dir Wind Speed Gust Speed Precip Events Conditions
12:15 AM 75.2 °F 64.4 °F 69% 29.87 in 10.0 mi East 4.6 mph - N/A   Clear
12:35 AM 75.2 °F 66.2 °F 73% 29.87 in 10.0 mi ESE 6.9 mph - N/A   Clear
12:55 AM 75.2 °F 64.4 °F 69% 29.87 in 10.0 mi ESE 5.8 mph - N/A   Clear
1:15 AM 75.2 °F 64.4 °F 69% 29.86 in 10.0 mi SE 4.6 mph - N/A   Clear
1:35 AM 73.4 °F 64.4 °F 73% 29.87 in 10.0 mi Calm Calm - N/A   Clear
1:55 AM 71.6 °F 64.4 °F 78% 29.87 in 10.0 mi ENE 5.8 mph - N/A   Clear
2:15 AM 73.4 °F 64.4 °F 73% 29.88 in 10.0 mi Calm Calm - N/A   Scattered Clouds
2:35 AM 73.4 °F 62.6 °F 69% 29.95 in 10.0 mi WNW 28.8 mph 36.8 mph N/A   Mostly Cloudy
2:55 AM 71.6 °F 59.0 °F 64% 29.98 in 10.0 mi WNW 19.6 mph 31.1 mph N/A   Mostly Cloudy
3:15 AM 68.0 °F 60.8 °F 78% 29.98 in 10.0 mi NW 5.8 mph - N/A Rain Rain
3:35 AM 66.2 °F 60.8 °F 83% 29.95 in 10.0 mi North 3.5 mph - N/A Rain Light Rain
3:55 AM 66.2 °F 60.8 °F 83% 29.95 in 10.0 mi Calm Calm - N/A   Clear
4:15 AM 64.4 °F 62.6 °F 94% 29.88 in 10.0 mi East 12.7 mph - N/A Rain Light Rain
4:35 AM 64.4 °F 62.6 °F 94% 29.87 in 10.0 mi ESE 10.4 mph - N/A   Scattered Clouds
4:55 AM 64.4 °F 62.6 °F 94% 29.90 in 10.0 mi WNW 6.9 mph - N/A Rain Light Rain
5:15 AM 64.4 °F 62.6 °F 94% 29.98 in 10.0 mi West 21.9 mph 31.1 mph N/A   Scattered Clouds
5:35 AM 64.4 °F 62.6 °F 94% 29.92 in 3.0 mi ESE 8.1 mph - 0.14 in Rain , Thunderstorm Heavy Thunderstorms and Rain
5:55 AM 64.4 °F 62.6 °F 94% 29.92 in 10.0 mi SSE 5.8 mph - 0.16 in Rain , Thunderstorm Light Thunderstorms and Rain
6:15 AM 64.4 °F 62.6 °F 94% 29.88 in 10.0 mi ESE 10.4 mph - 0.01 in Rain , Thunderstorm Light Thunderstorms and Rain
6:35 AM 64.4 °F 62.6 °F 94% 29.87 in 10.0 mi ESE 3.5 mph - 0.01 in Rain Light Rain
6:55 AM 64.4 °F 62.6 °F 94% 29.87 in 10.0 mi Calm Calm - 0.01 in Thunderstorm Scattered Clouds
7:15 AM 66.2 °F 64.4 °F 94% 29.87 in 10.0 mi Calm Calm - N/A   Clear
7:35 AM 68.0 °F 64.4 °F 88% 29.85 in 10.0 mi SE 6.9 mph - N/A   Clear
7:55 AM 68.0 °F 64.4 °F 88% 29.88 in 10.0 mi WNW 8.1 mph - N/A   Clear
8:15 AM 68.0 °F 64.4 °F 88% 29.91 in 10.0 mi NW 9.2 mph 19.6 mph N/A   Clear
8:35 AM 68.0 °F 64.4 °F 88% 29.92 in 10.0 mi Calm Calm - N/A   Clear
8:55 AM 68.0 °F 64.4 °F 88% 29.92 in 10.0 mi Calm Calm - N/A   Clear
9:14 AM 69.8 °F 66.2 °F 88% 29.94 in 10.0 mi Calm Calm - N/A   Clear
9:15 AM 68.0 °F 64.4 °F 88% 29.94 in 10.0 mi Calm Calm - N/A   Clear
9:35 AM 68.0 °F 64.4 °F 88% 29.93 in 10.0 mi WSW 3.5 mph - N/A Rain , Thunderstorm Rain
9:55 AM 68.0 °F 64.4 °F 88% 29.91 in 10.0 mi SE 5.8 mph - N/A Rain , Thunderstorm Light Thunderstorms and Rain
10:15 AM 68.0 °F 64.4 °F 88% 29.79 in 10.0 mi East 5.8 mph 13.8 mph N/A Rain Light Rain
10:35 AM 69.8 °F 66.2 °F 88% 29.86 in 10.0 mi WSW 12.7 mph 21.9 mph N/A   Clear
10:55 AM 69.8 °F 66.2 °F 88% 29.87 in 10.0 mi West 8.1 mph - N/A   Clear
11:35 AM 71.6 °F 66.2 °F 83% 29.88 in 10.0 mi NW 10.4 mph - N/A Thunderstorm Clear
11:55 AM 69.8 °F 64.4 °F 83% 29.90 in 10.0 mi WNW 8.1 mph - N/A Thunderstorm Mostly Cloudy
12:15 PM 69.8 °F 64.4 °F 83% 29.93 in 10.0 mi West 10.4 mph - N/A Thunderstorm Overcast
12:35 PM 68.0 °F 64.4 °F 88% 29.92 in 7.0 mi West 8.1 mph 18.4 mph 0.01 in Rain , Thunderstorm Thunderstorms and Rain
1:15 PM 66.2 °F 64.4 °F 94% 29.91 in 2.0 mi West 9.2 mph - 0.15 in Rain , Thunderstorm Heavy Thunderstorms and Rain
1:35 PM 66.2 °F 64.4 °F 94% 29.92 in 2.0 mi NW 3.5 mph - 0.33 in Rain , Thunderstorm Thunderstorms and Rain
1:55 PM 66.2 °F 64.4 °F 94% 29.91 in 3.0 mi WSW 5.8 mph - 0.41 in Rain , Thunderstorm Heavy Thunderstorms and Rain
2:35 PM 66.2 °F 64.4 °F 94% 29.86 in 5.0 mi East 11.5 mph - 0.12 in Rain Rain
2:55 PM 68.0 °F 64.4 °F 88% 29.84 in 10.0 mi East 3.5 mph - 0.13 in Rain Light Rain
3:15 PM 68.0 °F 64.4 °F 88% 29.84 in 10.0 mi ESE 5.8 mph - N/A   Clear
3:35 PM 68.0 °F 66.2 °F 94% 29.86 in 10.0 mi WNW 6.9 mph - N/A   Clear
4:35 PM 69.8 °F 66.2 °F 88% 29.87 in 10.0 mi West 5.8 mph - N/A   Scattered Clouds
4:55 PM 71.6 °F 66.2 °F 83% 29.87 in 10.0 mi West 5.8 mph - N/A   Scattered Clouds
5:35 PM 71.6 °F 64.4 °F 78% 29.86 in 10.0 mi West 4.6 mph - N/A   Scattered Clouds
5:55 PM 71.6 °F 64.4 °F 78% 29.87 in 10.0 mi West 6.9 mph - N/A   Clear
6:35 PM 73.4 °F 64.4 °F 73% 29.87 in 10.0 mi West 8.1 mph - N/A   Clear
7:15 PM 71.6 °F 64.4 °F 78% 29.89 in 10.0 mi West 8.1 mph - N/A   Scattered Clouds
7:55 PM 71.6 °F 62.6 °F 73% 29.90 in 10.0 mi West 5.8 mph - N/A   Scattered Clouds
8:15 PM 71.6 °F 60.8 °F 69% 29.90 in 10.0 mi West 11.5 mph 16.1 mph N/A   Clear
8:35 PM 69.8 °F 59.0 °F 68% 29.92 in 10.0 mi West 4.6 mph - N/A   Clear
8:55 PM 68.0 °F 59.0 °F 73% 29.92 in 10.0 mi Calm Calm - N/A   Clear
9:15 PM 66.2 °F 59.0 °F 78% 29.92 in 10.0 mi Calm Calm - N/A   Clear
9:35 PM 60.8 °F 59.0 °F 94% 29.92 in 10.0 mi Calm Calm - N/A   Clear
9:55 PM 60.8 °F 59.0 °F 94% 29.92 in 10.0 mi Calm Calm - N/A   Clear
10:14 PM 60.8 °F 60.8 °F 100% 29.92 in 10.0 mi Calm Calm - N/A   Clear
10:15 PM 60.8 °F 59.0 °F 94% 29.92 in 10.0 mi Calm Calm - N/A   Clear
10:55 PM 59.0 °F 57.2 °F 94% 29.91 in 10.0 mi Calm Calm - N/A   Clear
11:35 PM 57.2 °F 55.4 °F 94% 29.91 in 10.0 mi Calm Calm - N/A   Clear
11:55 PM 57.2 °F 55.4 °F 94% 29.92 in 10.0 mi Calm Calm - N/A   Clear